TimeMST,TemperatureF,Dew PointF,Humidity,Sea Level PressureIn,VisibilityMPH,Wind Direction,Wind SpeedMPH,Gust SpeedMPH,PrecipitationIn,Events,Conditions,WindDirDegrees,DateUTC
12:53 AM,5.0,-0.0,80,30.59,10.0,ENE,3.5,-,N/A,,Clear,70,2012-11-23 07:53:00
1:53 AM,7.0,3.0,84,30.56,10.0,East,9.2,-,N/A,,Clear,80,2012-11-23 08:53:00
2:53 AM,8.1,3.9,83,30.54,10.0,East,10.4,-,N/A,,Clear,80,2012-11-23 09:53:00
3:53 AM,9.0,5.0,84,30.52,10.0,ENE,6.9,-,N/A,,Clear,70,2012-11-23 10:53:00
4:53 AM,9.0,5.0,84,30.50,10.0,East,9.2,-,N/A,,Clear,80,2012-11-23 11:53:00
5:53 AM,10.0,6.1,84,30.48,10.0,East,10.4,-,N/A,,Scattered Clouds,80,2012-11-23 12:53:00
6:53 AM,12.0,9.0,88,30.45,10.0,East,6.9,-,N/A,,Overcast,80,2012-11-23 13:53:00
7:53 AM,12.9,10.0,88,30.43,10.0,East,5.8,-,N/A,,Overcast,90,2012-11-23 14:53:00
8:53 AM,15.1,12.0,88,30.39,10.0,ENE,5.8,-,N/A,,Overcast,60,2012-11-23 15:53:00
9:53 AM,17.1,12.9,84,30.37,10.0,Calm,Calm,-,N/A,,Scattered Clouds,0,2012-11-23 16:53:00
10:53 AM,19.9,15.1,81,30.32,10.0,Calm,Calm,-,N/A,,Overcast,0,2012-11-23 17:53:00
11:53 AM,21.9,17.1,82,30.29,10.0,East,4.6,-,N/A,,Overcast,90,2012-11-23 18:53:00
12:53 PM,24.1,18.0,77,30.23,10.0,East,3.5,-,N/A,,Clear,100,2012-11-23 19:53:00
1:53 PM,26.1,21.0,81,30.19,10.0,ESE,6.9,-,N/A,,Partly Cloudy,120,2012-11-23 20:53:00
2:53 PM,28.9,23.0,78,30.15,10.0,East,5.8,-,N/A,,Overcast,90,2012-11-23 21:53:00
3:53 PM,28.9,24.1,82,30.14,10.0,ENE,8.1,-,N/A,,Mostly Cloudy,60,2012-11-23 22:53:00
4:53 PM,25.0,21.9,88,30.14,10.0,ENE,4.6,-,N/A,,Clear,60,2012-11-23 23:53:00
5:53 PM,25.0,21.9,88,30.11,10.0,ESE,5.8,-,N/A,,Scattered Clouds,120,2012-11-24 00:53:00
6:53 PM,27.0,21.9,81,30.07,10.0,Calm,Calm,-,N/A,,Partly Cloudy,0,2012-11-24 01:53:00
7:53 PM,28.9,23.0,78,30.04,10.0,WSW,6.9,-,N/A,,Clear,240,2012-11-24 02:53:00
8:53 PM,35.1,28.0,76,30.01,10.0,WSW,10.4,-,N/A,,Clear,240,2012-11-24 03:53:00
9:53 PM,34.0,28.0,79,29.99,10.0,WSW,10.4,-,N/A,,Clear,250,2012-11-24 04:53:00
10:53 PM,39.2,28.4,65,29.87,10.0,SW,11.5,-,N/A,,Clear,230,2012-11-24 05:53:00
11:53 PM,41.0,30.0,65,29.94,10.0,SW,12.7,-,N/A,,Overcast,230,2012-11-24 06:53:00